When you browse on this site, cookies collect data to enhance your experience and personalize the content and advertising you see.
Visit our Privacy Policy to learn more. By continuing to use the site, you agree to this use of cookies and data.
  • In Hungary
  • List of Countries
  • For 7 days
  • Water Temperature
  • Satellite Maps
  • Weather Map
  • News
  • Weather Widgets
  • user-avatar
    Login

    Hourly Weather Legowo

    Today, 24 January, Thursday

    Time Temperature Precipitation Wind Pressure Humidity
    00:00 -9°C° 0 mm 3 mps 758 mmHg 83%
    01:00 -8°C° 0 mm 2 mps 759 mmHg 87%
    02:00 -9°C° 0 mm 3 mps 759 mmHg 88%
    03:00 -9°C° 0 mm 3 mps 759 mmHg 88%
    04:00 -9°C° 0 mm 3 mps 759 mmHg 88%
    05:00 -9°C° 0 mm 3 mps 759 mmHg 88%
    06:00 -9°C° 0 mm 3 mps 759 mmHg 88%
    07:00 -10°C° 0 mm 3 mps 760 mmHg 88%
    08:00 -10°C° 0 mm 3 mps 760 mmHg 86%
    09:00 -9°C° 0 mm 3 mps 761 mmHg 84%
    10:00 -9°C° 0 mm 3 mps 761 mmHg 81%
    11:00 -8°C° 0 mm 3 mps 761 mmHg 79%
    12:00 -8°C° 0 mm 4 mps 761 mmHg 76%
    13:00 -8°C° 0 mm 4 mps 761 mmHg 74%
    14:00 -8°C° 0 mm 4 mps 761 mmHg 76%
    15:00 -8°C° 0 mm 4 mps 761 mmHg 78%
    16:00 -9°C° 0 mm 4 mps 761 mmHg 80%
    17:00 -9°C° 0 mm 4 mps 761 mmHg 81%
    18:00 -9°C° 0 mm 4 mps 761 mmHg 83%
    19:00 -10°C° 0 mm 4 mps 761 mmHg 84%
    20:00 -10°C° 0 mm 4 mps 761 mmHg 84%
    21:00 -10°C° 0 mm 4 mps 762 mmHg 84%
    22:00 -10°C° 0 mm 4 mps 762 mmHg 84%
    23:00 -9°C° 0 mm 3 mps 762 mmHg 85%

    Tomorrow, 25 January, Friday

    Time Temperature Precipitation Wind Pressure Humidity
    00:00 -10°C° 0 mm 3 mps 762 mmHg 85%
    01:00 -10°C° 0 mm 3 mps 761 mmHg 86%
    02:00 -10°C° 0 mm 3 mps 761 mmHg 86%
    03:00 -10°C° 0 mm 3 mps 761 mmHg 86%
    04:00 -10°C° 0 mm 3 mps 761 mmHg 87%
    05:00 -10°C° 0 mm 3 mps 761 mmHg 86%
    06:00 -10°C° 0 mm 3 mps 760 mmHg 85%
    07:00 -9°C° 0 mm 2 mps 760 mmHg 85%
    08:00 -8°C° 0 mm 2 mps 760 mmHg 83%
    09:00 -8°C° 0 mm 2 mps 760 mmHg 81%
    10:00 -8°C° 0 mm 2 mps 760 mmHg 80%
    11:00 -7°C° 0 mm 2 mps 760 mmHg 79%
    12:00 -7°C° 0 mm 2 mps 759 mmHg 78%
    13:00 -6°C° 0 mm 2 mps 759 mmHg 77%
    14:00 -6°C° 0 mm 2 mps 759 mmHg 78%
    15:00 -6°C° 0 mm 2 mps 759 mmHg 79%
    16:00 -4°C° 0 mm 1 mps 758 mmHg 80%
    17:00 -4°C° 0 mm 1 mps 758 mmHg 81%
    18:00 -6°C° 0 mm 2 mps 758 mmHg 81%
    19:00 -6°C° 0 mm 2 mps 758 mmHg 82%
    20:00 -6°C° 0 mm 2 mps 757 mmHg 81%
    21:00 -6°C° 0 mm 2 mps 757 mmHg 81%
    22:00 -6°C° 0 mm 2 mps 756 mmHg 81%
    23:00 -6°C° 0 mm 2 mps 756 mmHg 80%

    Day after tomorrow, 26 January, Saturday

    Time Temperature Precipitation Wind Pressure Humidity
    00:00 -7°C° 0 mm 3 mps 755 mmHg 80%
    01:00 -7°C° 0 mm 3 mps 755 mmHg 79%
    02:00 -7°C° 0 mm 3 mps 754 mmHg 80%
    03:00 -7°C° 0 mm 3 mps 753 mmHg 80%
    04:00 -7°C° 0 mm 3 mps 752 mmHg 81%
    05:00 -7°C° 0 mm 3 mps 751 mmHg 81%
    06:00 -7°C° 0 mm 3 mps 751 mmHg 82%
    07:00 -7°C° 0 mm 3 mps 750 mmHg 83%
    08:00 -7°C° 0.1 mm 3 mps 749 mmHg 84%
    09:00 -7°C° 0.1 mm 3 mps 749 mmHg 86%
    10:00 -6°C° 0.1 mm 3 mps 748 mmHg 87%
    11:00 -6°C° 0.2 mm 3 mps 748 mmHg 87%
    12:00 -5°C° 0.2 mm 2 mps 748 mmHg 87%
    13:00 -2°C° 0.2 mm 1 mps 747 mmHg 87%
    14:00 -2°C° 0 mm 1 mps 747 mmHg 87%
    15:00 -2°C° 0 mm 1 mps 748 mmHg 87%
    16:00 -4°C° 0 mm 2 mps 748 mmHg 88%
    17:00 -2°C° 0 mm 1 mps 748 mmHg 88%
    18:00 -2°C° 0 mm 1 mps 748 mmHg 88%
    19:00 -2°C° 0 mm 1 mps 749 mmHg 88%
    20:00 -3°C° 0 mm 1 mps 749 mmHg 88%
    21:00 -3°C° 0 mm 1 mps 749 mmHg 88%
    22:00 -3°C° 0 mm 1 mps 750 mmHg 88%
    23:00 -3°C° 0 mm 1 mps 750 mmHg 88%

    27 January, Sunday

    Time Temperature Precipitation Wind Pressure Humidity
    00:00 -4°C° 0 mm 1 mps 750 mmHg 89%
    01:00 -5°C° 0 mm 0 mps 750 mmHg 89%
    02:00 -4°C° 0 mm 1 mps 750 mmHg 90%
    03:00 -4°C° 0 mm 1 mps 749 mmHg 90%
    04:00 -4°C° 0 mm 1 mps 749 mmHg 91%
    05:00 -6°C° 0 mm 1 mps 749 mmHg 91%
    06:00 -7°C° 0 mm 2 mps 749 mmHg 91%
    07:00 -7°C° 0 mm 2 mps 749 mmHg 91%
    08:00 -7°C° 0 mm 3 mps 749 mmHg 88%
    09:00 -7°C° 0 mm 3 mps 748 mmHg 86%
    10:00 -8°C° 0 mm 4 mps 748 mmHg 83%
    11:00 -7°C° 0 mm 4 mps 748 mmHg 81%
    12:00 -7°C° 0 mm 4 mps 748 mmHg 80%
    13:00 -6°C° 0 mm 5 mps 747 mmHg 78%
    14:00 -6°C° 0.1 mm 5 mps 747 mmHg 80%
    15:00 -7°C° 0.1 mm 5 mps 747 mmHg 82%
    16:00 -8°C° 0.1 mm 6 mps 746 mmHg 84%
    17:00 -8°C° 0.2 mm 6 mps 746 mmHg 86%
    18:00 -8°C° 0.2 mm 6 mps 746 mmHg 88%
    19:00 -8°C° 0.2 mm 6 mps 746 mmHg 89%
    20:00 -8°C° 0.1 mm 6 mps 746 mmHg 89%
    21:00 -8°C° 0.1 mm 6 mps 746 mmHg 90%
    22:00 -8°C° 0.1 mm 6 mps 745 mmHg 90%
    23:00 -8°C° 0.1 mm 6 mps 745 mmHg 90%

    28 January, Monday

    Time Temperature Precipitation Wind Pressure Humidity
    00:00 -6°C° 0.1 mm 6 mps 745 mmHg 90%
    01:00 -6°C° 0.1 mm 6 mps 745 mmHg 90%
    02:00 -6°C° 0.2 mm 5 mps 744 mmHg 91%
    03:00 -6°C° 0.2 mm 5 mps 744 mmHg 92%
    04:00 -6°C° 0.2 mm 5 mps 744 mmHg 93%
    05:00 -6°C° 0.4 mm 5 mps 744 mmHg 94%
    06:00 -5°C° 0.4 mm 4 mps 743 mmHg 95%
    07:00 -4°C° 0.4 mm 4 mps 743 mmHg 95%
    08:00 -4°C° 0.1 mm 4 mps 743 mmHg 95%
    09:00 -2°C° 0.1 mm 3 mps 743 mmHg 95%
    10:00 -2°C° 0.1 mm 3 mps 743 mmHg 95%
    11:00 -1°C° 0 mm 3 mps 743 mmHg 96%
    12:00 -1°C° 0 mm 3 mps 743 mmHg 96%
    13:00 0°C° 0 mm 3 mps 743 mmHg 97%
    14:00 +1°C° 0.1 mm 2 mps 743 mmHg 97%
    15:00 +1°C° 0.1 mm 2 mps 743 mmHg 97%
    16:00 +1°C° 0.1 mm 2 mps 743 mmHg 97%
    17:00 +1°C° 0.1 mm 2 mps 743 mmHg 97%
    18:00 -1°C° 0.1 mm 2 mps 743 mmHg 97%
    19:00 -1°C° 0.1 mm 2 mps 743 mmHg 97%
    20:00 -1°C° 0.2 mm 2 mps 743 mmHg 97%
    21:00 -1°C° 0.2 mm 2 mps 743 mmHg 97%
    22:00 +1°C° 0.2 mm 1 mps 743 mmHg 97%
    23:00 +1°C° 0.2 mm 1 mps 743 mmHg 97%

    29 January, Tuesday

    Time Temperature Precipitation Wind Pressure Humidity
    00:00 +1°C° 0.2 mm 1 mps 743 mmHg 97%
    01:00 +1°C° 0.2 mm 1 mps 743 mmHg 97%
    02:00 -1°C° 0.7 mm 2 mps 743 mmHg 97%
    03:00 -1°C° 0.7 mm 2 mps 743 mmHg 96%
    04:00 -1°C° 0.7 mm 2 mps 744 mmHg 96%
    05:00 -2°C° 0.6 mm 4 mps 744 mmHg 95%
    06:00 -3°C° 0.6 mm 6 mps 745 mmHg 93%
    07:00 -4°C° 0.6 mm 8 mps 745 mmHg 91%
    08:00 -3°C° 0.2 mm 7 mps 746 mmHg 89%
    09:00 -3°C° 0.2 mm 7 mps 747 mmHg 86%
    10:00 -3°C° 0.2 mm 6 mps 748 mmHg 83%
    11:00 -3°C° 0.1 mm 6 mps 749 mmHg 82%
    12:00 -3°C° 0.1 mm 6 mps 750 mmHg 81%
    13:00 -3°C° 0.1 mm 6 mps 750 mmHg 80%
    14:00 -4°C° 0 mm 5 mps 751 mmHg 81%
    15:00 -4°C° 0 mm 4 mps 751 mmHg 82%
    16:00 -4°C° 0 mm 3 mps 752 mmHg 83%
    17:00 -5°C° 0 mm 3 mps 752 mmHg 84%
    18:00 -5°C° 0 mm 3 mps 752 mmHg 85%
    19:00 -6°C° 0 mm 3 mps 753 mmHg 86%
    20:00 -6°C° 0 mm 3 mps 753 mmHg 88%
    21:00 -7°C° 0 mm 3 mps 753 mmHg 89%
    22:00 -7°C° 0 mm 3 mps 753 mmHg 91%
    23:00 -6°C° 0 mm 3 mps 753 mmHg 92%
    Show more